Location: *
(50.3440°N, 18.6237°E)
Time: 18:12:33
(UTC+00:00)

Envisat - Pass Details

Date: 30 November 2020
Orbit: 764 x 766 km, 98.1° (Epoch: 18 January)

Event Time Altitude Azimuth Distance (km) Brightness Sun altitude
Rises 15:33:05 0° 163° (SSE) 3,222 6.3 -7.4°
Reaches altitude 10° 15:35:22 10° 163° (SSE) 2,300 5.6 -7.7°
Maximum altitude 15:40:27 88° 78° (ENE) 775 3.0 -8.5°
Drops below altitude 10° 15:45:34 10° 346° (NNW) 2,317 5.4 -9.2°
Sets 15:47:53 0° 347° (NNW) 3,248 6.2 -9.6°
